TimePST,TemperatureF,Dew PointF,Humidity,Sea Level PressureIn,VisibilityMPH,Wind Direction,Wind SpeedMPH,Gust SpeedMPH,PrecipitationIn,Events,Conditions,WindDirDegrees,DateUTC
12:01 AM,28.0,25.0,88,30.32,0.5,Calm,Calm,-,N/A,Fog,Light Freezing Fog,0,2014-01-21 08:01:00
12:05 AM,28.0,25.0,88,30.32,0.2,Calm,Calm,-,N/A,Fog,Light Freezing Fog,0,2014-01-21 08:05:00
12:14 AM,28.0,27.0,96,30.32,0.2,Calm,Calm,-,N/A,Fog,Light Freezing Fog,0,2014-01-21 08:14:00
12:39 AM,28.0,25.0,88,30.32,0.2,Calm,Calm,-,N/A,Fog,Light Freezing Fog,0,2014-01-21 08:39:00
12:53 AM,28.0,27.0,96,30.36,0.2,Calm,Calm,-,N/A,Fog,Light Freezing Fog,0,2014-01-21 08:53:00
1:14 AM,28.0,25.0,88,30.32,0.2,Calm,Calm,-,N/A,Fog,Light Freezing Fog,0,2014-01-21 09:14:00
1:24 AM,27.0,26.1,96,30.32,0.2,Calm,Calm,-,N/A,Fog,Light Freezing Fog,0,2014-01-21 09:24:00
1:53 AM,27.0,26.1,96,30.35,0.2,Calm,Calm,-,N/A,Fog,Light Freezing Fog,0,2014-01-21 09:53:00
2:03 AM,27.0,26.1,96,30.32,0.2,Calm,Calm,-,N/A,Fog,Light Freezing Fog,0,2014-01-21 10:03:00
2:53 AM,28.0,27.0,96,30.36,0.2,Calm,Calm,-,N/A,Fog,Light Freezing Fog,0,2014-01-21 10:53:00
3:53 AM,28.0,27.0,96,30.37,0.2,Calm,Calm,-,N/A,Fog,Light Freezing Fog,0,2014-01-21 11:53:00
4:53 AM,28.0,27.0,96,30.38,0.2,Calm,Calm,-,N/A,Fog,Light Freezing Fog,0,2014-01-21 12:53:00
5:02 AM,28.0,27.0,96,30.35,0.2,Calm,Calm,-,N/A,Fog,Light Freezing Fog,0,2014-01-21 13:02:00
5:53 AM,28.9,26.1,89,30.38,0.2,Calm,Calm,-,N/A,Fog,Light Freezing Fog,0,2014-01-21 13:53:00
6:53 AM,28.9,26.1,89,30.40,0.2,Calm,Calm,-,N/A,Fog,Light Freezing Fog,0,2014-01-21 14:53:00
7:53 AM,28.0,26.1,92,30.41,0.2,Calm,Calm,-,N/A,Fog,Light Freezing Fog,0,2014-01-21 15:53:00
7:58 AM,28.0,26.1,92,30.37,0.2,Calm,Calm,-,N/A,Fog,Light Freezing Fog,0,2014-01-21 15:58:00
8:45 AM,28.0,26.1,92,30.38,0.2,Calm,Calm,-,N/A,Fog,Light Freezing Fog,0,2014-01-21 16:45:00
8:53 AM,28.9,26.1,89,30.42,0.2,Calm,Calm,-,N/A,Fog,Light Freezing Fog,0,2014-01-21 16:53:00
9:11 AM,28.9,27.0,92,30.38,0.2,Calm,Calm,-,N/A,Fog,Light Freezing Fog,0,2014-01-21 17:11:00
9:18 AM,28.9,27.0,92,30.39,0.2,Calm,Calm,-,0.00,Fog-Snow,Light Snow,0,2014-01-21 17:18:00
9:26 AM,28.9,27.0,92,30.39,0.2,Calm,Calm,-,0.00,Fog-Snow,Light Snow,0,2014-01-21 17:26:00
9:53 AM,28.9,27.0,92,30.44,0.2,Calm,Calm,-,0.00,Fog,Light Freezing Fog,0,2014-01-21 17:53:00
10:46 AM,30.9,28.9,92,30.40,0.2,Calm,Calm,-,N/A,Fog,Light Freezing Fog,0,2014-01-21 18:46:00
10:53 AM,30.9,28.9,92,30.44,0.2,Calm,Calm,-,N/A,Fog,Light Freezing Fog,0,2014-01-21 18:53:00
11:39 AM,32.0,30.0,92,30.37,0.2,Calm,Calm,-,N/A,Fog,Fog,0,2014-01-21 19:39:00
11:51 AM,32.0,30.2,93,30.37,0.2,NNE,3.5,-,N/A,Fog,Fog,20,2014-01-21 19:51:00
11:53 AM,32.0,30.0,92,30.41,0.2,Calm,Calm,-,N/A,Fog,Fog,0,2014-01-21 19:53:00
12:01 PM,32.0,30.9,96,30.37,0.5,Calm,Calm,-,N/A,Fog,Fog,0,2014-01-21 20:01:00
12:11 PM,32.0,30.9,96,30.36,0.2,North,3.5,-,N/A,Fog,Fog,10,2014-01-21 20:11:00
12:38 PM,32.0,32.0,100,30.34,0.2,Calm,Calm,-,N/A,Fog,Fog,0,2014-01-21 20:38:00
12:53 PM,33.1,33.1,100,30.38,0.2,West,3.5,-,N/A,Fog,Fog,280,2014-01-21 20:53:00
1:10 PM,34.0,33.1,96,30.33,0.5,Calm,Calm,-,N/A,Fog,Fog,0,2014-01-21 21:10:00
1:37 PM,36.0,33.1,89,30.32,2.5,Calm,Calm,-,N/A,,Overcast,0,2014-01-21 21:37:00
1:49 PM,37.4,33.8,87,30.32,3.0,Calm,Calm,-,N/A,,Mostly Cloudy,0,2014-01-21 21:49:00
1:53 PM,37.9,34.0,86,30.35,4.0,Calm,Calm,-,N/A,,Scattered Clouds,0,2014-01-21 21:53:00
2:53 PM,44.1,35.1,71,30.34,9.0,Calm,Calm,-,N/A,,Clear,0,2014-01-21 22:53:00
3:53 PM,50.0,34.0,54,30.32,10.0,Calm,Calm,-,N/A,,Clear,0,2014-01-21 23:53:00
4:53 PM,46.0,35.1,66,30.32,10.0,NNW,3.5,-,N/A,,Clear,340,2014-01-22 00:53:00
5:53 PM,39.0,34.0,82,30.32,10.0,Calm,Calm,-,N/A,,Clear,0,2014-01-22 01:53:00
6:53 PM,37.9,33.1,83,30.33,10.0,SE,3.5,-,N/A,,Clear,140,2014-01-22 02:53:00
7:53 PM,35.1,30.9,85,30.35,7.0,Calm,Calm,-,N/A,,Clear,0,2014-01-22 03:53:00
8:53 PM,33.1,30.0,89,30.36,5.0,South,3.5,-,N/A,,Clear,180,2014-01-22 04:53:00
9:53 PM,32.0,28.9,88,30.36,6.0,Calm,Calm,-,N/A,,Clear,0,2014-01-22 05:53:00
10:53 PM,30.9,28.0,89,30.39,4.0,Calm,Calm,-,N/A,,Clear,0,2014-01-22 06:53:00
11:53 PM,30.0,27.0,88,30.40,4.0,Calm,Calm,-,N/A,,Clear,0,2014-01-22 07:53:00